Regional Weather Roundup
Issued by NWS

Home | Current Version | Previous Version | Graphics & Text | Print | Product List | Glossary Off
Versions: 1 2 3 4 5 6 7 8 9 10 11 12 13 14 15 16 17 18 19 20 21 22 23 24 25 26 27 28 29 30 31 32 33 34 35 36 37 38 39 40 41 42 43 44 45 46 47 48 49 50

000
ASUS43 KLSX 232359
RWRMO

WEATHER SUMMARY FOR MISSOURI
NATIONAL WEATHER SERVICE SPRINGFIELD MO
700 PM CDT SAT MAY 23 2015

NOTE: "FAIR" INDICATES FEW OR NO CLOUDS BELOW 12,000 FEET WITH NO
       SIGNIFICANT WEATHER AND/OR OBSTRUCTIONS TO VISIBILITY.
       CURRENT SKY AND/OR WEATHER CONDITIONS ARE NOT AVAILABLE FOR
       CHILLICOTHE AND FARMINGTON.

MOZ001>031-035>038-043-044-053-054-240100-
...NORTHERN AND WESTERN MISSOURI...

CITY           SKY/WX    TMP DP  RH WIND       PRES   REMARKS
KANSAS CTY INT LGT RAIN  65  61  87 SE12      30.07R
6HR MIN TEMP:  64; 6HR MAX TEMP:  67; 6HR PCP:  0.01;

KANSAS C DTWN  LGT RAIN  67  59  75 E9        30.05S
6HR MIN TEMP:  67; 6HR MAX TEMP:  69; 6HR PCP:  0.01;

LEE`S SUMMIT   CLOUDY    66  58  75 E9        30.05F
6HR MIN TEMP:  66; 6HR MAX TEMP:  68;

ST JOSEPH      LGT RAIN  67  59  75 SE7       30.06F
6HR MIN TEMP:  65; 6HR MAX TEMP:  68; 6HR PCP: TRACE;

KIRKSVILLE     CLOUDY    70  56  61 SE9       30.13F
6HR MIN TEMP:  69; 6HR MAX TEMP:  74;


$$
MOZ066>068-077>081-088>096-101>105-240100-
...SOUTHWEST MISSOURI...

CITY           SKY/WX    TMP DP  RH WIND       PRES   REMARKS
SPRINGFIELD    CLOUDY    71  58  63 SE16G24   30.07F
6HR MIN TEMP:  66; 6HR MAX TEMP:  74;

JOPLIN         CLOUDY    68  66  93 E8        30.02F
6HR MIN TEMP:  67; 6HR MAX TEMP:  75; 6HR PCP:  0.11;


$$
MOZ032>034-039>042-045>050-055>058-069>072-240100-
...CENTRAL MISSOURI...

CITY           SKY/WX    TMP DP  RH WIND       PRES   REMARKS
COLUMBIA       CLOUDY    69  56  62 SE6       30.12F
6HR MIN TEMP:  69; 6HR MAX TEMP:  73;

JEFFERSON CITY CLOUDY    71  55  56 SE9       30.12F
6HR MIN TEMP:  70; 6HR MAX TEMP:  74;

ROLLA          PTSUNNY   68  56  65 SE8       30.13F
6HR MIN TEMP:  67; 6HR MAX TEMP:  72; 6HR PCP: TRACE;

SEDALIA        CLOUDY    67  55  65 SE10      30.11F
6HR MIN TEMP:  66; 6HR MAX TEMP:  71;

OSAGE BEACH    CLOUDY    70  57  64 E5        30.12S

$$
MOZ051-052-059>065-240100-
...EAST CENTRAL MISSOURI...

CITY           SKY/WX    TMP DP  RH WIND       PRES   REMARKS
ST LOUIS INTL  CLOUDY    76  48  37 SE10      30.16F
6HR MIN TEMP:  76; 6HR MAX TEMP:  79;

SPIRIT OF STL  CLOUDY    74  53  48 SE3       30.14F
ST CHARLES     CLOUDY    75  48  38 SE10      30.15F
6HR MIN TEMP:  75; 6HR MAX TEMP:  79;


$$
MOZ072>076-082>087-097>100-106>115-240100-
...SOUTH CENTRAL AND SOUTHEAST MISSOURI...

CITY           SKY/WX    TMP DP  RH WIND       PRES   REMARKS
CAPE GIRARDEAU MOSUNNY   74  56  53 SE8       30.17F
6HR MIN TEMP:  74; 6HR MAX TEMP:  78;

FARMINGTON     PTSUNNY   72  52  49 SE7       30.20F
6HR MIN TEMP:  72; 6HR MAX TEMP:  75;

POPLAR BLUFF   MOSUNNY   76  55  48 SE10      30.14F
6HR MIN TEMP:  75; 6HR MAX TEMP:  78;

WEST PLAINS    MOSUNNY   70  55  59 SE7       30.15F
6HR MIN TEMP:  63; 6HR MAX TEMP:  73; 6HR PCP: TRACE;


$$



USA.gov is the U.S. government's official web portal to all federal, state and local government web resources and services.